www.pogodaiklimat.ru

Погода и климат >> Архив погоды >> Россия >> Якутия >> Нюрба


ПОГОДА в Нюрбе

  • Прогноз погоды в Нюрбе
  • Монитор погоды в Нюрбе

АРХИВ ПОГОДЫ в Нюрбе

Время (UTC), дата Ветер
(напр.,м/с)
 
Видим.   Явления Облачность Т
(С)
Тd
(С)
f
(%)
Тe
(С)
Тes
(С)
Комфортность P
(гПа)
Po
(гПа)
Тmin
(С)
Tmax
(С)
R
(мм)
R24
(мм)
S
(см)
06 11.09 Ю 3 50 км 9/5 600 м
[Cu Sc Ac trans Ci fib]
+19.5 +1.5 30 +20 +21 1004.1 990.3
09 11.09 З 2 50 км 8/5 600 м
[Cb cap Ac trans Ci fib]
+18.6 +2.3 34 +19 +20 1004.2 990.3
12 11.09 штиль 0 50 км 4/0
[Ac trans Ci fib]
+8.3 +4.1 75 +8 +8 1004.8 990.4 +19.9
15 11.09 штиль 0 50 км 5/0
[Ac trans Ci fib]
+8.3 +3.0 69 +8 +8 1005.1 990.7
18 11.09 штиль 0 50 км 4/0
[Ac trans Ci fib]
+3.6 +2.6 93 +2 +2 1004.9 990.2
21 11.09 штиль 0 20 км местами туман поземный 5/0
[Ac trans Ci fib]
+3.3 +2.3 93 +2 +2 1004.8 990.2
00 12.09 ЮЗ 1 50 км 10/0
[Ac trans Ci fib]
+5.7 +3.6 86 +5 +6 1004.1 989.6 +1.4
03 12.09 штиль 0 50 км 10/0
[Ac trans Ci fib]
+12.1 +5.1 62 +12 +15 1002.8 988.6
06 12.09 СВ 1 50 км 10/4 600 м
[Sc As op]
+15.6 +6.1 53 +16 +17 1000.3 986.4
09 12.09 ЮВ 3 20 км слаб. ливневой дождь 10/6 900 м
[Cb cap As op]
+14.5 +6.7 59 +14 +14 998.9 984.9
12 12.09 штиль 0 50 км {ливн. осадки} 10/5 600 м
[Cb cap As op]
+8.8 +8.0 95 +8 +8 998.1 983.9 +16.7 1
15 12.09 штиль 0 50 км 10/5 600 м
[Cb cap As op]
+8.2 +7.4 95 +7 +7 997.0 982.7
18 12.09 З 3 50 км слаб. ливневой дождь 10/5 600 м
[Cb cap As op]
+9.0 +8.1 94 +6 +6 996.5 982.3
21 12.09 З 5 50 км слаб. ливневой дождь 10/5 600 м
[Cb cap As op]
+5.6 +4.8 95 +1 +1 996.5 982.3
00 13.09 З 6-10
{12}
50 км {ливн. осадки} 10/8 570 м
[St As op]
+4.3 +1.2 80 -1 -1 999.8 985.3 +4.3 7
03 13.09 З 7-11
{13}
50 км 8/8 800 м
[Sc]
+5.0 -0.6 67 -0 0 1000.7 986.2
06 13.09 З 6-11
{13}
50 км ясно +7.4 -7.4 34 +4 +6 1000.7 986.3
09 13.09 З 5-10
{12}
50 км 3/0
[Ac trans]
+6.9 -9.9 29 +4 +4 1001.8 987.4
12 13.09 З 3
{10}
50 км 3/0
[Ac trans]
+2.2 -6.1 54 -1 -1 1002.9 988.2 +7.4
15 13.09 ЮЗ 3 50 км 3/0
[Ac trans]
-0.1 -6.9 60 -4 -4 1003.0 988.2
18 13.09 ЮЗ 2 50 км 3/0
[Ac trans]
-1.8 -6.0 73 -5 -5 1002.3 987.4
21 13.09 штиль 0 50 км 3/0
[Ac trans]
-5.4 -6.8 90 -6 -6 1001.0 985.9
00 14.09 ЮЗ 5 50 км в посл. час ливневой снег 8/8 720 м
[Cb cap]
-0.3 -3.0 82 -6 -6 999.9 985.1 -5.7 0.0 <0.5
03 14.09 ЮЗ 5 50 км 5/5 600 м
[Sc]
+1.9 -6.2 55 -3 -2 1000.0 985.4
06 14.09 ЮЗ 4 50 км 8/0 840 м
[Cb cap]
+5.4 -5.8 44 +2 +4 998.7 984.2
09 14.09 ЮЗ 4
{10}
50 км в посл. час ливневой снег 10/8 720 м
[Cb cap As op]
+1.7 -2.4 74 -3 -3 1000.5 985.9
12 14.09 ЮЗ 2 50 км {ливн. осадки} 9/5 600 м
[Sc Ac trans]
+0.9 -3.0 75 -2 -2 1001.3 986.6 +5.9 0.0
15 14.09 ЮВ 1 50 км 8/4 600 м
[Sc Ac trans]
-1.5 -4.8 78 -3 -3 1001.9 987.0
18 14.09 ЮВ 1 50 км 6/3 600 м
[Sc Ac trans]
-2.6 -5.3 82 -5 -5 1002.2 987.3
21 14.09 ЮВ 1 50 км 4/0
[Ac trans]
-4.2 -6.1 87 -7 -7 1002.3 987.3
00 15.09 СВ 1 50 км 6/0
[Ac trans Ci fib]
-3.8 -6.0 85 -6 -5 1002.5 987.5 -7.0
03 15.09 ЮВ 2 50 км 5/4 600 м
[Sc Ac trans Ci fib]
+5.0 -3.7 53 +3 +5 1001.3 986.8
06 15.09 Ю 1 50 км 10/5 1000 м
[Sc Ac und]
+5.7 -4.9 46 +5 +6 1001.2 986.8
09 15.09 Ю 4 50 км 10/5 600 м
[Cb cap Ac und]
+4.3 -4.7 52 +1 +1 1002.5 987.9
12 15.09 Ю 3 50 км 10/4 600 м
[Cb cap Ac und]
+2.4 -2.2 72 -2 -2 1003.4 988.7 +5.9
15 15.09 В 1 50 км 10/3 600 м
[Sc Ac und]
-1.5 -2.1 96 -4 -4 1003.6 988.7
18 15.09 штиль 0 50 км 10/3 600 м
[Sc Ac und]
-1.7 -2.3 96 -3 -3 1004.2 989.3
21 15.09 Ю 2 50 км 10/10 330 м
[St]
+0.7 -0.4 92 -3 -3 1004.5 989.7
00 16.09 Ю 3 50 км 10/10 180 м
[St]
+1.1 -0.3 90 -3 -3 1005.4 990.6 -1.8
03 16.09 Ю 3 50 км 10/10 500 м
[St]
+3.9 -1.0 70 0 0 1006.4 991.8
06 16.09 Ю 3 50 км {морось} 10/10 720 м
[Sc]
+5.6 +0.7 71 +3 +3 1007.6 993.0
09 16.09 З 1 50 км {дождь} 10/5 600 м
[Sc Ac und]
+4.3 +2.8 90 +3 +3 1009.7 995.0
12 16.09 штиль 0 50 км {дождь} 10/5 600 м
[Sc Ac und]
+2.0 +1.5 96 +1 +1 1012.2 997.4 +6.7 0.8
15 16.09 штиль 0 50 км 10/3 600 м
[Sc Ac trans Ci fib]
-0.5 -1.1 96 -2 -2 1013.6 998.6
18 16.09 З 1 50 км 10/3 600 м
[Sc Ac trans Ci fib]
-2.6 -2.9 98 -5 -5 1014.8 999.6
21 16.09 штиль 0 50 км 6/0
[Ac trans Ci fib]
-4.5 -5.1 96 -6 -6 1016.1 1000.8
00 17.09 штиль 0 500 м туман ?/? -2.6 -2.9 98 -4 -4 1017.3 1002.1 -5.3
03 17.09 З 2 50 км {туман} 3/3 200 м
[St Ci fib]
+3.1 +0.2 81 0 +3 1017.9 1003.0
06 17.09 З 4 50 км {туман} 5/5 600 м
[Cu med, cong]
+7.3 -3.6 46 +4 +6 1017.4 1002.7
09 17.09 СЗ 2 50 км 5/5 600 м
[Sc]
+6.2 -6.2 41 +5 +5 1017.7 1003.0
12 17.09 штиль 0 50 км 5/3 600 м
[Sc Ci fib]
-1.8 -5.1 78 -3 -3 1018.7 1003.5 +7.8
15 17.09 штиль 0 50 км 5/0
[Ci fib]
-5.5 -6.6 92 -7 -7 1018.8 1003.4
18 17.09 штиль 0 50 км 5/0
[Ci fib]
-6.5 -7.0 96 -7 -7 1018.9 1003.4
21 17.09 штиль 0 50 км 4/0
[Ci fib]
-7.9 -8.5 95 -9 -9 1018.9 1003.4
00 18.09 ЮЗ 2 50 км 3/0
[Ci fib]
-3.8 -5.6 87 -8 -7 1019.0 1003.7 -7.9
03 18.09 З 3 50 км 3/0
[Ci fib]
+6.1 -4.7 46 +4 +7 1017.2 1002.5

 

Местоположение метеостанции Нюрба (Якутия, Россия): широта 63.28 долгота 118.30 высота над уровнем моря 119 м.

В архиве по умолчанию представлена погода в Нюрбе за последнюю неделю. Архивные данные за месяц целиком и за предыдущие месяцы, начиная с января 2011 года, Вы можете получить, выбрав интересующий диапазон дат из раскрывающегося списка и нажав кнопку "Ввод!".


*Определитесь, кто Вы:
робот инопланетянин человек

Внимание! Время в таблицах - всемирное. Для получения местного времени необходимо прибавить поправку, которая равна 9 ч.

Смотрите также архив погоды в соседних городах и на ближайших метеорологических станциях:

Погода в Верхневилюйске (Якутия, Россия) (97 км)
Погода в Чумпуруке (Якутия, Россия) (126 км)
Погода в Сунтаре (Якутия, Россия) (129 км)
Погода в Крестяхе (Якутия, Россия) (159 км)
Погода в Вилюйске (Якутия, Россия) (172 км)
Погода в Мирном (Якутия, Россия) (243 км)
Погода в Килиере (Якутия, Россия) (264 км)
Погода в Дорожном (Якутия, Россия) (265 км)
Погода в Чернышевском (Якутия, Россия) (298 км)
Погода в Эйке (Якутия, Россия) (309 км)

Пояснения к столбцам:

Ветер - указаны скорость ветра в м/с - средняя за 10 мин, порывы в срок и между сроками (в фигурных скобках) и направление, откуда дует ветер: С - северный, СВ - северо-восточный, В - восточный, ЮВ - юго-восточный, Ю - южный, ЮЗ - юго-западный, З - западный, СЗ - северо-западный.
Видимость - горизонтальная дальность видимости в метрах или километрах. При видимости от 1 до 10 км при отсутствии осадков обычно наблюдается дымка, при ухудшении видимости до 1 км и менее - туман. В сухую погоду видимость может ухудшаться дымом, пылью или мглою.
Явления - указаны атмосферные явления, наблюдавшиеся в срок или в последний час перед сроком; фигурными скобками обозначены явления, наблюдавшиеся между сроками (за 1-3 часа до срока); квадратными скобками обозначены град или гололедные отложения с указанием их диаметра в мм.
Облачность - указаны через наклонную черту общая и нижняя облачность в баллах и высота нижней границы облаков в метрах; квадратными скобками обозначены формы облаков: Ci - перистые, Cs - перисто-слоистые, Cc - перисто-кучевые, Ac - высококучевые, As - высокослоистые, Sc - слоисто-кучевые, Ns - слоисто-дождевые, Cu - кучевые, Cb - кучево-дождевые. Подробнее классификацию облаков см. в Атласе облаков (PDF).
T - Температура воздуха - температура, измеренная на высоте 2 м над землей.
Td - Температура точки росы - температура, при понижении до которой содержащийся в воздухе водяной пар достигнет насыщения.
f - Относительная влажность воздуха - влажноcть воздуха, измеренная на высоте 2 м над землей.
Te - Эффективная температура - температура, которую ощущает одетый по сезону человек в тени. Характеристика душности погоды. При расчете учитывается влияние влажности воздуха и скорости ветра на теплоощущения человека.
Tes - Эффективная температура на солнце - температура, которую ощущает человек, с поправкой на солнечный нагрев. Характеристика знойности погоды. Зависит от высоты солнца над горизонтом, облачности и скорости ветра. Ночью, в пасмурную погоду, а также при ветре 12 м/с и более поправка равна нулю.
P - Атмосферное давление - приведенное к уровню моря атмосферное давление.
Po - Атмосферное давление - измеренное на уровне метеостанции атмосферное давление.
Tmin - Минимальная температура - минимум температуры воздуха на высоте 2 м над землей.
Tmax - Максимальная температура - максимум температуры воздуха на высоте 2 м над землей.
R - Количество осадков - Количество выпавших осадков за период времени, мм. При наведении курсора мыши на число - период времени, за который выпало указанное количество осадков.
R24 - Количество осадков - Количество выпавших осадков за 24 часа, мм.
S - Снежный покров - Высота снежного покрова, см. При наведении курсора мыши на число - состояние снежного покрова и степень покрытия местности в баллах.